Location: Buckeye Ditch
(40.9104°N, 122.9517°W)
Time: 01:25:15
(UTC+00:00)

SR - Pass Details

Date: 22 May 2025
Orbit: 570 x 855 km, 66.7° (Epoch: 11 June)

Event Time Altitude Azimuth Distance (km) Brightness Sun altitude
Exits shadow 08:00:28 76° 292° (WNW) 883 ? -28.6°
Maximum altitude 08:00:32 76° 300° (WNW) 882 ? -28.6°
Drops below altitude 10° 08:06:20 10° 27° (NNE) 2,479 ? -28.6°
Sets 08:08:48 0° 29° (NNE) 3,401 ? -28.6°
